| time (UTC) | temp F | wind direction | speed knots | gust knots | rain 1hr in | rain 24hr in | rain mn in | humidity % | barometer mb |
| 20260506005526 | 0 | 0.0 | 0.0 | 0.00 | 0.00 | 0.00 | 1011.5 | ||
| 20260506004516 | 45 | 4.3 | 6.1 | 0.00 | 0.00 | 0.00 | 87 | 1011.6 | |
| 20260506003647 | 45 | 0 | 2.6 | 3.5 | 0.00 | 0.00 | 0.00 | 86 | 1011.6 |
| 20260505233136 | 45 | 0 | 1.7 | 2.6 | 0.00 | 0.00 | 0.00 | 82 | 1011.6 |
| 20260505232133 | 45 | 0 | 0.9 | 1.7 | 0.00 | 0.00 | 0.00 | 81 | 1011.6 |
| 20260505231129 | 45 | 0 | 0.9 | 1.7 | 0.00 | 0.00 | 0.00 | 81 | 1011.7 |
| 20260505230125 | 45 | 0.9 | 1.7 | 0.00 | 0.00 | 0.00 | 81 | 1011.7 | |
| 20260505225121 | 45 | 0 | 1.7 | 2.6 | 0.00 | 0.00 | 0.00 | 80 | 1011.7 |
| 20260505224116 | 45 | 0.0 | 0.0 | 0.00 | 0.00 | 0.00 | 80 | 1011.7 | |
| 20260505223111 | 45 | 0 | 0.9 | 1.7 | 0.00 | 0.00 | 0.00 | 80 | 1011.8 |
| 20260505222126 | 45 | 340 | 1.7 | 2.6 | 0.00 | 0.00 | 0.00 | 80 | 1011.8 |
| 20260505221103 | 46 | 0.0 | 0.9 | 0.00 | 0.00 | 0.00 | 72 | 1011.8 | |
| 20260505220059 | 46 | 0.0 | 0.9 | 0.00 | 0.00 | 0.00 | 72 | 1012.0 | |
| 20260505215055 | 46 | 290 | 1.7 | 2.6 | 0.00 | 0.00 | 0.00 | 72 | 1011.8 |
| 20260505214151 | 46 | 348 | 2.6 | 3.5 | 0.00 | 0.00 | 0.00 | 71 | 1011.7 |
| 20260505213147 | 46 | 1.7 | 2.6 | 0.00 | 0.00 | 0.00 | 71 | 1011.8 | |
| 20260505212203 | 46 | 90 | 0.9 | 1.7 | 0.00 | 0.00 | 0.00 | 70 | 1011.9 |
| 20260505211138 | 46 | 90 | 0.9 | 2.6 | 0.00 | 0.00 | 0.00 | 70 | 1011.8 |
| 20260505210133 | 47 | 1.7 | 3.5 | 0.00 | 0.00 | 0.00 | 70 | 1011.8 | |
| 20260505205129 | 47 | 90 | 4.3 | 6.1 | 0.00 | 0.00 | 0.00 | 69 | 1011.7 |
| 20260505204125 | 48 | 5.2 | 7.0 | 0.00 | 0.00 | 0.00 | 67 | 1011.6 | |
| 20260505203121 | 0 | 0.0 | 0.0 | 0.00 | 0.00 | 0.00 | 1011.7 | ||
| 20260505202116 | 0 | 0.0 | 0.0 | 0.00 | 0.00 | 0.00 | 1011.6 | ||
| 20260505201111 | 49 | 4.3 | 5.2 | 0.00 | 0.00 | 0.00 | 68 | 1011.5 | |
| 20260505200106 | 49 | 4.3 | 5.2 | 0.00 | 0.00 | 0.00 | 69 | 1011.5 | |
| 20260505195101 | 49 | 2.6 | 3.5 | 0.00 | 0.00 | 0.00 | 68 | 1011.3 | |
| 20260505194116 | 50 | 90 | 1.7 | 2.6 | 0.00 | 0.00 | 0.00 | 65 | 1011.3 |
| 20260505193051 | 50 | 3.5 | 5.2 | 0.00 | 0.00 | 0.00 | 64 | 1011.2 | |
| 20260505192147 | 50 | 0 | 2.6 | 3.5 | 0.00 | 0.00 | 0.00 | 65 | 1011.1 |
| 20260505191223 | 50 | 4.3 | 5.2 | 0.00 | 0.00 | 0.00 | 66 | 1011.0 | |
| 20260505190139 | 50 | 0 | 3.5 | 5.2 | 0.00 | 0.00 | 0.00 | 66 | 1011.1 |
| 20260505185134 | 50 | 0 | 2.6 | 3.5 | 0.00 | 0.00 | 0.00 | 66 | 1011.1 |
| 20260505184129 | 51 | 0 | 4.3 | 6.1 | 0.00 | 0.00 | 0.00 | 65 | 1011.2 |
| 20260505183124 | 51 | 50 | 3.5 | 5.2 | 0.00 | 0.00 | 0.00 | 65 | 1011.2 |
| 20260505182140 | 51 | 0 | 3.5 | 5.2 | 0.00 | 0.00 | 0.00 | 63 | 1011.1 |
| 20260505181116 | 51 | 5.2 | 6.1 | 0.00 | 0.00 | 0.00 | 62 | 1011.2 | |
| 20260505180112 | 52 | 0 | 4.3 | 7.0 | 0.00 | 0.00 | 0.00 | 62 | 1011.0 |
| 20260505175108 | 52 | 0 | 4.3 | 7.0 | 0.00 | 0.00 | 0.00 | 61 | 1011.2 |
| 20260505174104 | 52 | 0 | 6.1 | 7.8 | 0.00 | 0.00 | 0.00 | 61 | 1011.2 |
| 20260505173120 | 52 | 6.1 | 8.7 | 0.00 | 0.00 | 0.00 | 61 | 1011.2 | |
| 20260505172056 | 52 | 0 | 6.1 | 8.7 | 0.00 | 0.00 | 0.00 | 61 | 1011.2 |
| 20260505171051 | 52 | 0 | 4.3 | 7.0 | 0.00 | 0.00 | 0.00 | 61 | 1011.2 |
| 20260505170106 | 52 | 0 | 2.6 | 7.0 | 0.00 | 0.00 | 0.00 | 63 | 1011.2 |
| 20260505165142 | 52 | 79 | 2.6 | 3.5 | 0.00 | 0.00 | 0.00 | 64 | 1011.4 |
| 20260505164138 | 52 | 3.5 | 5.2 | 0.00 | 0.00 | 0.00 | 65 | 1011.3 | |
| 20260505163125 | 52 | 0 | 3.5 | 6.1 | 0.00 | 0.00 | 0.00 | 65 | 1011.4 |
| 20260505162120 | 51 | 11 | 4.3 | 7.8 | 0.00 | 0.00 | 0.00 | 67 | 1011.4 |
| 20260505161136 | 51 | 0 | 5.2 | 7.0 | 0.00 | 0.00 | 0.00 | 66 | 1011.4 |
| 20260505160130 | 52 | 0 | 5.2 | 7.8 | 0.00 | 0.00 | 0.00 | 66 | 1011.5 |
| 20260505153056 | 52 | 90 | 1.7 | 3.5 | 0.00 | 0.00 | 0.00 | 67 | 1011.4 |
| 20260505152051 | 52 | 90 | 2.6 | 7.0 | 0.00 | 0.00 | 0.00 | 68 | 1011.5 |
| 20260505151048 | 52 | 0 | 6.1 | 8.7 | 0.00 | 0.00 | 0.00 | 66 | 1011.5 |
| 20260505140128 | 53 | 269 | 0.9 | 3.5 | 0.00 | 0.00 | 0.00 | 68 | 1011.8 |
| 20260505124103 | 53 | 0 | 5.2 | 7.0 | 0.00 | 0.00 | 0.00 | 62 | 1011.7 |
| 20260505123040 | 54 | 0 | 2.6 | 4.3 | 0.00 | 0.00 | 0.00 | 63 | 1011.6 |
| 20260505122135 | 53 | 0 | 1.7 | 3.5 | 0.00 | 0.00 | 0.00 | 64 | 1011.6 |
| 20260505121150 | 53 | 334 | 2.6 | 4.3 | 0.00 | 0.00 | 0.00 | 68 | 1011.7 |
| 20260505120125 | 51 | 0 | 4.3 | 6.1 | 0.00 | 0.00 | 0.00 | 67 | 1011.8 |
| 20260505115121 | 52 | 0 | 3.5 | 7.0 | 0.00 | 0.00 | 0.00 | 70 | 1011.8 |
| 20260505114115 | 51 | 0 | 3.5 | 6.1 | 0.00 | 0.00 | 0.00 | 71 | 1011.8 |
| 20260505113111 | 50 | 0 | 5.2 | 9.6 | 0.00 | 0.00 | 0.00 | 71 | 1012.0 |
| 20260505112106 | 50 | 5.2 | 7.0 | 0.00 | 0.00 | 0.00 | 71 | 1012.0 | |
| 20260505111102 | 50 | 0 | 7.0 | 9.6 | 0.00 | 0.00 | 0.00 | 71 | 1012.1 |
| 20260505102040 | 48 | 1.7 | 3.5 | 0.00 | 0.00 | 0.00 | 82 | 1012.3 | |
| 20260505101036 | 48 | 4.3 | 6.1 | 0.00 | 0.00 | 0.00 | 80 | 1012.3 | |
| 20260505100132 | 48 | 90 | 1.7 | 2.6 | 0.00 | 0.00 | 0.00 | 76 | 1012.3 |
| 20260505095128 | 49 | 0 | 6.1 | 8.7 | 0.00 | 0.00 | 0.00 | 73 | 1012.3 |
| 20260505094124 | 49 | 0 | 7.0 | 9.6 | 0.00 | 0.00 | 0.00 | 71 | 1012.2 |
| 20260505093120 | 50 | 0 | 7.0 | 7.8 | 0.00 | 0.00 | 0.00 | 70 | 1012.1 |
| 20260505092115 | 50 | 5.2 | 7.0 | 0.00 | 0.00 | 0.00 | 70 | 1012.1 | |
| 20260505091110 | 50 | 0 | 7.0 | 7.8 | 0.00 | 0.00 | 0.00 | 67 | 1012.1 |
| 20260505090106 | 51 | 0 | 7.0 | 8.7 | 0.00 | 0.00 | 0.00 | 64 | 1012.1 |
| 20260505085101 | 52 | 13 | 2.6 | 4.3 | 0.00 | 0.00 | 0.00 | 61 | 1012.2 |
| 20260505084118 | 53 | 0 | 4.3 | 6.1 | 0.00 | 0.00 | 0.00 | 60 | 1012.2 |
| 20260505083054 | 56 | 23 | 2.6 | 4.3 | 0.00 | 0.00 | 0.00 | 55 | 1012.2 |
| 20260505082109 | 55 | 15 | 2.6 | 4.3 | 0.00 | 0.00 | 0.00 | 53 | 1012.2 |
| 20260505081104 | 54 | 22 | 3.5 | 6.1 | 0.00 | 0.00 | 0.00 | 56 | 1012.2 |
| 20260505080039 | 54 | 0 | 5.2 | 7.0 | 0.00 | 0.00 | 0.00 | 58 | 1012.2 |
| 20260505075054 | 52 | 356 | 5.2 | 7.0 | 0.00 | 0.00 | 0.00 | 58 | 1012.2 |
| 20260505074029 | 53 | 0 | 7.0 | 9.6 | 0.00 | 0.00 | 0.00 | 57 | 1012.2 |
| 20260505073124 | 53 | 318 | 2.6 | 6.1 | 0.00 | 0.00 | 0.00 | 60 | 1012.2 |
| 20260505072120 | 53 | 329 | 3.5 | 4.3 | 0.00 | 0.00 | 0.00 | 61 | 1012.2 |
| 20260505071116 | 53 | 355 | 2.6 | 6.1 | 0.00 | 0.00 | 0.00 | 62 | 1012.2 |
| 20260505070113 | 53 | 326 | 2.6 | 3.5 | 0.00 | 0.00 | 0.00 | 63 | 1012.2 |
| 20260505065108 | 53 | 6 | 0.9 | 2.6 | 0.00 | 0.00 | 0.00 | 66 | 1012.3 |
| 20260505064123 | 51 | 315 | 0.9 | 2.6 | 0.00 | 0.00 | 0.00 | 71 | 1012.2 |
| 20260505063058 | 49 | 0.0 | 0.0 | 0.00 | 0.00 | 0.00 | 72 | 1012.2 | |
| 20260505062054 | 48 | 0.0 | 0.0 | 0.00 | 0.00 | 0.00 | 73 | 1012.2 | |
| 20260505061049 | 47 | 0.0 | 0.0 | 0.00 | 0.00 | 0.00 | 75 | 1012.2 | |
| 20260505060046 | 46 | 0.0 | 0.0 | 0.00 | 0.00 | 0.00 | 75 | 1012.2 | |
| 20260505055042 | 46 | 0.0 | 0.0 | 0.00 | 0.00 | 0.00 | 77 | 1012.2 | |
| 20260505054058 | 46 | 293 | 0.9 | 2.6 | 0.00 | 0.00 | 0.00 | 80 | 1012.1 |
| 20260505053034 | 46 | 289 | 0.9 | 2.6 | 0.00 | 0.00 | 0.00 | 85 | 1012.2 |
| 20260505052029 | 45 | 0 | 0.0 | 1.7 | 0.00 | 0.00 | 0.00 | 93 | 1012.2 |
| 20260505051024 | 43 | 338 | 0.9 | 2.6 | 0.00 | 0.00 | 0.00 | 94 | 1012.2 |
| 20260505050119 | 43 | 0.0 | 0.0 | 0.00 | 0.00 | 0.00 | 93 | 1012.2 | |
| 20260505041058 | 44 | 0.0 | 0.0 | 0.00 | 0.00 | 0.00 | 92 | 1011.9 | |
| 20260505040053 | 44 | 0.0 | 0.0 | 0.00 | 0.00 | 0.00 | 92 | 1011.9 | |
| 20260505035048 | 45 | 0.0 | 0.0 | 0.00 | 0.00 | 0.00 | 92 | 1012.0 | |
| 20260505034123 | 46 | 0.0 | 0.0 | 0.00 | 0.00 | 0.00 | 88 | 1012.0 | |
| 20260505033038 | 46 | 0.0 | 0.0 | 0.00 | 0.00 | 0.00 | 89 | 1011.9 | |
| 20260505032034 | 46 | 0.0 | 0.0 | 0.00 | 0.00 | 0.00 | 88 | 1012.0 | |
| 20260505031030 | 46 | 0.0 | 0.0 | 0.00 | 0.00 | 0.00 | 88 | 1012.0 | |
| 20260505030026 | 47 | 0.0 | 0.0 | 0.00 | 0.00 | 0.00 | 89 | 1011.9 | |
| 20260505025021 | 47 | 0.0 | 0.0 | 0.00 | 0.00 | 0.00 | 88 | 1012.0 | |
| 20260505024117 | 47 | 0.0 | 0.0 | 0.00 | 0.00 | 0.00 | 88 | 1012.0 | |
| 20260505023132 | 48 | 0.0 | 0.0 | 0.00 | 0.00 | 0.00 | 88 | 1012.0 | |
| 20260505022107 | 48 | 0.0 | 0.0 | 0.00 | 0.00 | 0.00 | 88 | 1012.1 | |
| 20260505021123 | 48 | 0.0 | 0.0 | 0.00 | 0.00 | 0.00 | 88 | 1012.0 | |
| 20260505020119 | 48 | 0.0 | 0.0 | 0.00 | 0.00 | 0.00 | 88 | 1012.0 | |
| 20260505015055 | 48 | 0.0 | 0.0 | 0.00 | 0.00 | 0.00 | 88 | 1012.2 | |
| 20260505014052 | 48 | 0.0 | 0.0 | 0.00 | 0.00 | 0.00 | 88 | 1012.4 | |
| 20260505013048 | 48 | 0.0 | 0.0 | 0.00 | 0.00 | 0.00 | 88 | 1012.5 | |
| 20260505012043 | 48 | 0.0 | 0.0 | 0.00 | 0.00 | 0.00 | 88 | 1012.6 |